sat.trackr.live / text

‹ back to catalog

STARLINK-3931

NORAD 52548 · 2022-051R

PAYLOAD ACTIVE UNKNOWN

§ Identity

Operator
Country
US
Launch date
2022-05-13
Launch site
AFWTR
Launch vehicle
Mass (kg)
RCS (m²)

Purposes: comms

External: N2YO · Heavens-Above · Gunter

§ Orbital elements

Epoch: 2026-05-25T00:48:03.105792Z

Period
95.44 min
Inclination
53.2133°
Eccentricity
0.0001054
Mean motion
15.08838321 rev/d
Perigee alt
539.0 km
Apogee alt
540.5 km
Semi-major
6,917.9 km
B*
-2.7821e-5
RAAN
146.4007°
Arg perigee
62.5845°
Mean anomaly
297.5254°
Rev number
22,297

§ Raw data

STARLINK-39311 52548U 22051R   26145.03336928 -.00000730  00000+0 -27821-4 0  99912 52548  53.2133 146.4007 0001054  62.5845 297.5254 15.08838321222970

JSON: /api/v1/satellites/52548 · /tle

For live sub-satellite position, see the globe view (requires WebGL).

§ Visibility from observer

Set your observer location to see the next 7 days of passes ≥ 10°. The values pass through the URL so the page stays shareable.

No JS? Fill the form by hand. The geolocation button needs JavaScript.